Fulton, NY

4:40 PM EDT on April 25, 2017 (GMT -0400)
Oswego County

Weather History for KFZY - January, 2013

Change the Weather History Date:

Sunday, January 27, 2013

  Actual Average (KSYR) Record (KSYR)
Temperature  
Mean Temperature 13 °F -  
Max Temperature 23 °F 30 °F 64 °F (1916)
Min Temperature 3 °F 14 °F -16 °F (1994)
Degree Days  
Heating Degree Days 52    
Moisture  
Dew Point 7 °F    
Average Humidity 68    
Maximum Humidity 88    
Minimum Humidity 53    
Precipitation  
Precipitation 0.00 in - - ()
Sea Level Pressure  
Sea Level Pressure 30.50 in    
Wind  
Wind Speed 2 mph (East)    
Max Wind Speed 6 mph    
Max Gust Speed -    
Visibility 10 miles    
Events      
Averages and records for this station are not official NWS values.
T = Trace of Precipitation, MM = Missing Value Source: NWS Daily Summary

Daily Weather History Graph

Daily Weather History Graph

Search for Another Location

Airport or City:

Trip Planner

Search our weather history database for the weather conditions in past years. The results will help you decide how hot, cold, wet, or windy it might be!

Date:

Astronomy

Jan. 27, 2013 Rise Set
Actual Time 7:26 AM EST 5:11 PM EST
Civil Twilight 6:55 AM EST 5:41 PM EST
Nautical Twilight 6:21 AM EST 6:16 PM EST
Astronomical Twilight 5:47 AM EST 6:49 PM EST
Moon 6:06 PM EST (1/27) 7:15 AM EST (1/27)
Length of Visible Light 10h 46m
Length of Day
9h 44m
Full, 100% of the Moon is Illuminated
Jan 27
Full
Feb 3
Last Quarter
Feb 10
New
Feb 17
First Quarter
Feb 25
Full

Hourly Weather History & Observations

Time (EST) Temp. Windchill Dew Point Humidity Pressure Visibility Wind Dir Wind Speed Gust Speed Precip Events Conditions
12:54 AM 14.0 °F - 10.9 °F 88% 30.40 in 10.0 mi Calm Calm - N/A   Overcast
1:20 AM 12.2 °F - 8.6 °F 85% 30.37 in 10.0 mi Calm Calm - N/A   Mostly Cloudy
1:54 AM 14.0 °F 8.2 °F 10.9 °F 88% 30.43 in 10.0 mi SSE 3.5 mph - N/A   Overcast
2:54 AM 17.1 °F 10.0 °F 10.9 °F 77% 30.45 in 10.0 mi NE 4.6 mph - N/A   Overcast
3:21 AM 15.8 °F 8.6 °F 10.4 °F 79% 30.43 in 10.0 mi NE 4.6 mph - N/A   Overcast
3:49 AM 15.8 °F 7.2 °F 8.6 °F 73% 30.43 in 8.0 mi NE 5.8 mph - N/A   Overcast
3:54 AM 15.1 °F 7.7 °F 9.0 °F 77% 30.47 in 7.0 mi ENE 4.6 mph - N/A   Overcast
4:54 AM 14.0 °F 8.2 °F 7.0 °F 74% 30.49 in 9.0 mi ENE 3.5 mph - N/A   Overcast
5:54 AM 12.0 °F 5.9 °F 3.9 °F 70% 30.51 in 10.0 mi ENE 3.5 mph - N/A   Overcast
6:54 AM 10.9 °F 4.7 °F 3.0 °F 70% 30.53 in 10.0 mi ENE 3.5 mph - N/A   Overcast
7:54 AM 3.9 °F - -0.9 °F 80% 30.56 in 10.0 mi Calm Calm - N/A   Overcast
8:04 AM 6.8 °F - 1.4 °F 79% 30.52 in 10.0 mi Calm Calm - N/A   Overcast
8:28 AM 8.6 °F 2.0 °F -0.4 °F 67% 30.53 in 10.0 mi NE 3.5 mph - N/A   Scattered Clouds
8:54 AM 10.0 °F 3.6 °F -0.0 °F 64% 30.57 in 10.0 mi ENE 3.5 mph - N/A   Clear
9:54 AM 12.9 °F 6.9 °F 3.0 °F 65% 30.57 in 10.0 mi NE 3.5 mph - N/A   Clear
10:54 AM 15.1 °F - 5.0 °F 64% 30.58 in 10.0 mi Calm Calm - N/A   Clear
11:54 AM 18.0 °F - 7.0 °F 62% 30.56 in 10.0 mi Calm Calm - N/A   Clear
12:54 PM 19.0 °F 13.9 °F 8.1 °F 62% 30.54 in 10.0 mi WSW 3.5 mph - N/A   Clear
1:54 PM 21.0 °F 16.2 °F 8.1 °F 57% 30.53 in 10.0 mi South 3.5 mph - N/A   Clear
2:54 PM 23.0 °F - 8.1 °F 53% 30.53 in 10.0 mi Calm Calm - N/A   Clear
3:54 PM 21.9 °F - 7.0 °F 53% 30.54 in 10.0 mi Calm Calm - N/A   Clear
4:54 PM 21.9 °F - 7.0 °F 53% 30.53 in 10.0 mi Calm Calm - N/A   Partly Cloudy
5:54 PM 19.0 °F - 9.0 °F 65% 30.53 in 10.0 mi Calm Calm - N/A   Mostly Cloudy
6:54 PM 19.0 °F 13.9 °F 10.0 °F 68% 30.51 in 10.0 mi East 3.5 mph - N/A   Overcast
7:54 PM 19.9 °F 14.9 °F 10.0 °F 65% 30.50 in 10.0 mi ESE 3.5 mph - N/A   Overcast
8:54 PM 19.0 °F - 9.0 °F 65% 30.51 in 10.0 mi Calm Calm - N/A   Overcast
9:54 PM 18.0 °F 12.7 °F 8.1 °F 65% 30.47 in 10.0 mi ESE 3.5 mph - N/A   Overcast
10:54 PM 19.0 °F 12.3 °F 7.0 °F 59% 30.46 in 10.0 mi ESE 4.6 mph - N/A   Overcast
11:54 PM 19.0 °F 13.9 °F 7.0 °F 59% 30.45 in 10.0 mi ESE 3.5 mph - N/A   Overcast